• In Belarus
  • List of Countries
  • For 7 days
  • Water Temperature
  • Satellite Maps
  • Weather Map
  • Weather Widgets
  • user-avatar
    Login

    Hourly Weather Canberra

    Today, 26 September, Wednesday

    Time Temperature Precipitation Wind Pressure Humidity
    00:00 +7°C° 0.1 mm 1 mps 713 mmHg 97%
    01:00 +7°C° 0.1 mm 1 mps 713 mmHg 98%
    02:00 +7°C° 0.3 mm 1 mps 713 mmHg 98%
    03:00 +7°C° 0.3 mm 1 mps 712 mmHg 98%
    04:00 +7°C° 0 mm 1 mps 712 mmHg 98%
    05:00 +7°C° 0.5 mm 1 mps 712 mmHg 97%
    06:00 +6°C° 0.5 mm 2 mps 712 mmHg 97%
    07:00 +7°C° 0.5 mm 2 mps 713 mmHg 96%
    08:00 +7°C° 0.1 mm 2 mps 713 mmHg 91%
    09:00 +8°C° 0.1 mm 3 mps 713 mmHg 86%
    10:00 +10°C° 0 mm 2 mps 713 mmHg 78%
    11:00 +12°C° 0.2 mm 2 mps 713 mmHg 72%
    12:00 +13°C° 0.2 mm 2 mps 712 mmHg 66%
    13:00 +13°C° 0.2 mm 3 mps 712 mmHg 60%
    14:00 +13°C° 0.1 mm 3 mps 712 mmHg 61%
    15:00 +13°C° 0.1 mm 3 mps 712 mmHg 62%
    16:00 +12°C° 0.1 mm 3 mps 712 mmHg 62%
    17:00 +10°C° 0 mm 3 mps 712 mmHg 72%
    18:00 +8°C° 0 mm 2 mps 712 mmHg 82%
    19:00 +6°C° 0 mm 2 mps 712 mmHg 91%
    20:00 +6°C° 0 mm 2 mps 712 mmHg 93%
    21:00 +6°C° 0 mm 1 mps 712 mmHg 95%
    22:00 +5°C° 0 mm 1 mps 712 mmHg 97%
    23:00 +5°C° 0 mm 1 mps 712 mmHg 97%

    Tomorrow, 27 September, Thursday

    Time Temperature Precipitation Wind Pressure Humidity
    00:00 +5°C° 0 mm 1 mps 712 mmHg 97%
    01:00 +5°C° 0 mm 1 mps 712 mmHg 98%
    02:00 +5°C° 0 mm 1 mps 712 mmHg 97%
    03:00 +5°C° 0 mm 1 mps 711 mmHg 97%
    04:00 +4°C° 0 mm 1 mps 711 mmHg 97%
    05:00 +5°C° 0 mm 1 mps 711 mmHg 93%
    06:00 +6°C° 0 mm 1 mps 712 mmHg 90%
    07:00 +6°C° 0 mm 1 mps 712 mmHg 87%
    08:00 +9°C° 0 mm 1 mps 712 mmHg 74%
    09:00 +12°C° 0 mm 2 mps 712 mmHg 60%
    10:00 +15°C° 0 mm 2 mps 712 mmHg 47%
    11:00 +17°C° 0 mm 3 mps 711 mmHg 44%
    12:00 +18°C° 0 mm 3 mps 711 mmHg 41%
    13:00 +19°C° 0 mm 3 mps 710 mmHg 39%
    14:00 +19°C° 0 mm 3 mps 710 mmHg 41%
    15:00 +19°C° 0 mm 3 mps 710 mmHg 43%
    16:00 +19°C° 0 mm 4 mps 709 mmHg 45%
    17:00 +16°C° 0 mm 3 mps 709 mmHg 55%
    18:00 +14°C° 0 mm 2 mps 709 mmHg 64%
    19:00 +10°C° 0 mm 2 mps 709 mmHg 73%
    20:00 +11°C° 0 mm 1 mps 709 mmHg 75%
    21:00 +10°C° 0 mm 1 mps 709 mmHg 77%
    22:00 +9°C° 0 mm 1 mps 709 mmHg 79%
    23:00 +9°C° 0 mm 1 mps 708 mmHg 79%

    Day after tomorrow, 28 September, Friday

    Time Temperature Precipitation Wind Pressure Humidity
    00:00 +9°C° 0 mm 1 mps 708 mmHg 78%
    01:00 +8°C° 0 mm 1 mps 708 mmHg 78%
    02:00 +8°C° 0 mm 1 mps 707 mmHg 78%
    03:00 +8°C° 0 mm 1 mps 707 mmHg 77%
    04:00 +8°C° 0 mm 1 mps 707 mmHg 77%
    05:00 +8°C° 0 mm 2 mps 707 mmHg 75%
    06:00 +9°C° 0 mm 2 mps 708 mmHg 73%
    07:00 +10°C° 0 mm 3 mps 708 mmHg 70%
    08:00 +13°C° 0 mm 3 mps 708 mmHg 62%
    09:00 +15°C° 0 mm 4 mps 708 mmHg 54%
    10:00 +19°C° 0 mm 5 mps 709 mmHg 46%
    11:00 +20°C° 0 mm 5 mps 708 mmHg 46%
    12:00 +20°C° 0 mm 5 mps 708 mmHg 45%
    13:00 +20°C° 0 mm 6 mps 708 mmHg 45%
    14:00 +20°C° 0 mm 5 mps 707 mmHg 48%
    15:00 +19°C° 0 mm 5 mps 707 mmHg 50%
    16:00 +18°C° 0 mm 4 mps 707 mmHg 53%
    17:00 +16°C° 0 mm 3 mps 707 mmHg 62%
    18:00 +14°C° 0 mm 2 mps 707 mmHg 71%
    19:00 +10°C° 0 mm 2 mps 707 mmHg 80%
    20:00 +11°C° 0 mm 1 mps 708 mmHg 81%
    21:00 +10°C° 0 mm 1 mps 709 mmHg 82%
    22:00 +9°C° 0 mm 1 mps 709 mmHg 84%
    23:00 +8°C° 0 mm 1 mps 709 mmHg 84%

    29 September, Saturday

    Time Temperature Precipitation Wind Pressure Humidity
    00:00 +7°C° 0 mm 1 mps 709 mmHg 85%
    01:00 +6°C° 0 mm 1 mps 709 mmHg 85%
    02:00 +6°C° 0 mm 1 mps 709 mmHg 86%
    03:00 +5°C° 0 mm 1 mps 709 mmHg 87%
    04:00 +5°C° 0 mm 1 mps 709 mmHg 88%
    05:00 +4°C° 0.1 mm 2 mps 709 mmHg 88%
    06:00 +5°C° 0.1 mm 2 mps 710 mmHg 88%
    07:00 +6°C° 0.1 mm 2 mps 711 mmHg 88%
    08:00 +6°C° 0.2 mm 2 mps 712 mmHg 84%
    09:00 +7°C° 0.2 mm 2 mps 712 mmHg 79%
    10:00 +8°C° 0.2 mm 3 mps 713 mmHg 74%
    11:00 +9°C° 0.2 mm 2 mps 712 mmHg 67%
    12:00 +10°C° 0.2 mm 2 mps 712 mmHg 61%
    13:00 +12°C° 0.2 mm 2 mps 712 mmHg 54%
    14:00 +12°C° 0.1 mm 2 mps 712 mmHg 53%
    15:00 +12°C° 0.1 mm 1 mps 712 mmHg 51%
    16:00 +12°C° 0.1 mm 1 mps 712 mmHg 50%
    17:00 +11°C° 0 mm 1 mps 713 mmHg 56%
    18:00 +9°C° 0 mm 1 mps 714 mmHg 63%
    19:00 +8°C° 0 mm 1 mps 715 mmHg 69%
    20:00 +7°C° 0 mm 1 mps 715 mmHg 74%
    21:00 +6°C° 0 mm 1 mps 716 mmHg 79%
    22:00 +5°C° 0 mm 1 mps 716 mmHg 84%
    23:00 +5°C° 0 mm 1 mps 716 mmHg 85%

    30 September, Sunday

    Time Temperature Precipitation Wind Pressure Humidity
    00:00 +4°C° 0 mm 1 mps 716 mmHg 87%
    01:00 +3°C° 0 mm 1 mps 716 mmHg 88%
    02:00 +3°C° 0 mm 1 mps 716 mmHg 87%
    03:00 +3°C° 0 mm 1 mps 716 mmHg 86%
    04:00 +2°C° 0 mm 1 mps 716 mmHg 85%
    05:00 +3°C° 0 mm 1 mps 717 mmHg 79%
    06:00 +5°C° 0 mm 1 mps 718 mmHg 74%
    07:00 +6°C° 0 mm 1 mps 718 mmHg 68%
    08:00 +9°C° 0 mm 1 mps 718 mmHg 59%
    09:00 +12°C° 0 mm 1 mps 719 mmHg 49%
    10:00 +15°C° 0 mm 1 mps 719 mmHg 40%
    11:00 +16°C° 0 mm 1 mps 719 mmHg 38%
    12:00 +18°C° 0 mm 1 mps 718 mmHg 36%
    13:00 +19°C° 0 mm 1 mps 718 mmHg 34%
    14:00 +19°C° 0 mm 1 mps 717 mmHg 36%
    15:00 +18°C° 0 mm 1 mps 717 mmHg 38%
    16:00 +17°C° 0 mm 2 mps 717 mmHg 40%
    17:00 +14°C° 0 mm 1 mps 717 mmHg 52%
    18:00 +11°C° 0 mm 1 mps 717 mmHg 64%
    19:00 +8°C° 0 mm 1 mps 717 mmHg 76%
    20:00 +7°C° 0 mm 1 mps 718 mmHg 81%
    21:00 +6°C° 0 mm 1 mps 718 mmHg 87%
    22:00 +5°C° 0 mm 1 mps 718 mmHg 92%
    23:00 +5°C° 0 mm 1 mps 718 mmHg 93%

    1 October, Monday

    Time Temperature Precipitation Wind Pressure Humidity
    00:00 +5°C° 0 mm 1 mps 718 mmHg 94%
    01:00 +5°C° 0 mm 1 mps 718 mmHg 95%
    02:00 +4°C° 0 mm 1 mps 718 mmHg 95%
    03:00 +4°C° 0 mm 1 mps 718 mmHg 95%
    04:00 +4°C° 0 mm 1 mps 718 mmHg 95%
    05:00 +5°C° 0 mm 1 mps 718 mmHg 90%
    06:00 +7°C° 0 mm 1 mps 719 mmHg 85%
    07:00 +8°C° 0 mm 1 mps 719 mmHg 80%
    08:00 +11°C° 0 mm 1 mps 719 mmHg 68%
    09:00 +14°C° 0 mm 1 mps 719 mmHg 56%
    10:00 +18°C° 0 mm 1 mps 719 mmHg 43%
    11:00 +19°C° 0 mm 1 mps 718 mmHg 41%
    12:00 +19°C° 0 mm 2 mps 718 mmHg 38%
    13:00 +20°C° 0 mm 2 mps 718 mmHg 36%
    14:00 +20°C° 0 mm 2 mps 717 mmHg 38%
    15:00 +19°C° 0 mm 2 mps 717 mmHg 40%
    16:00 +19°C° 0 mm 2 mps 716 mmHg 42%
    17:00 +16°C° 0 mm 2 mps 716 mmHg 55%
    18:00 +13°C° 0 mm 1 mps 716 mmHg 67%
    19:00 +10°C° 0 mm 1 mps 716 mmHg 79%
    20:00 +10°C° 0 mm 1 mps 716 mmHg 82%
    21:00 +9°C° 0 mm 1 mps 717 mmHg 86%
    22:00 +8°C° 0 mm 1 mps 717 mmHg 89%
    23:00 +8°C° 0 mm 1 mps 717 mmHg 90%
    Show more